Starlink 1338

operational
NORAD ID: 45532 Int'l Des: 2020-025 Owner: SPXS Country: US Constellation: starlink
LEOCIRCULARSTARLINK_TYPE

Über Starlink 1338

Beschreibung wird geladen...

Live-Position

3D-Globus wird geladen...

Nächste Überflüge

Höhenverlauf

Altitude vs Time

uPlot chart will show altitude changes over time

Zweizeiliger Elementsatz

1 45532U 20025B 26033.97741088 .00110317 00000-0 20878-2 0 9996
2 45532 53.0512 251.6184 0005207 140.9219 219.2165 15.47538939320010
Epoch: 2. Feb. 2026 • Age: 15 hours

Aktueller Status

Höhe 431.7 km
Geschwindigkeit 7.65 km/s
Subsatellitenpunkt -17.49°S, 121.81°W
Startdatum 22. Apr. 2020
Alter 5.7 years
Typ internet

Technische Details

Klassifizierung Payload
Masse 260.00 kg
Trockenmasse 248.00 kg
Gesamtmasse 260.00 kg
Länge 0.20 m
Durchmesser 2.80 m
Spannweite 9.00 m
Form Box + pan
Hersteller SPXS
Bus-Typ Starlink
Phasenstatus In Orbit
Besitzer/Staat SPXS/US

Große Konstellationen

Loading constellations...